TimeEST,TemperatureF,Dew PointF,Humidity,Sea Level PressureIn,VisibilityMPH,Wind Direction,Wind SpeedMPH,Gust SpeedMPH,PrecipitationIn,Events,Conditions,WindDirDegrees,DateUTC
12:53 AM,63.0,61.0,93,29.94,10.0,NE,4.6,-,N/A,,Clear,40,2012-12-07 05:53:00
1:53 AM,63.0,62.1,97,29.94,10.0,NE,4.6,-,N/A,,Clear,50,2012-12-07 06:53:00
2:53 AM,62.1,61.0,96,29.93,10.0,ENE,4.6,-,N/A,,Clear,70,2012-12-07 07:53:00
3:53 AM,62.1,61.0,96,29.93,10.0,Calm,Calm,-,N/A,,Clear,0,2012-12-07 08:53:00
4:16 AM,62.6,62.6,100,29.93,10.0,Calm,Calm,-,N/A,,Partly Cloudy,0,2012-12-07 09:16:00
4:53 AM,61.0,60.1,97,29.93,10.0,Calm,Calm,-,N/A,,Clear,0,2012-12-07 09:53:00
5:53 AM,60.1,59.0,96,29.94,7.0,ENE,4.6,-,N/A,,Scattered Clouds,70,2012-12-07 10:53:00
6:00 AM,60.8,60.8,100,29.95,2.5,Calm,Calm,-,N/A,,Mostly Cloudy,0,2012-12-07 11:00:00
6:05 AM,60.8,60.8,100,29.95,0.8,ENE,3.5,-,N/A,,Mostly Cloudy,60,2012-12-07 11:05:00
6:22 AM,60.8,60.8,100,29.95,0.2,ENE,3.5,-,N/A,Fog,Fog,60,2012-12-07 11:22:00
6:32 AM,60.8,60.8,100,29.95,0.5,ENE,3.5,-,N/A,Fog,Fog,70,2012-12-07 11:32:00
6:40 AM,60.8,60.8,100,29.95,1.0,NE,3.5,-,N/A,,Mist,50,2012-12-07 11:40:00
6:44 AM,60.8,59.0,94,29.95,2.0,Calm,Calm,-,N/A,,Overcast,0,2012-12-07 11:44:00
6:53 AM,59.0,59.0,100,29.95,2.0,ENE,3.5,-,N/A,,Overcast,60,2012-12-07 11:53:00
7:00 AM,59.0,59.0,100,29.96,5.0,ENE,3.5,-,N/A,,Overcast,60,2012-12-07 12:00:00
7:26 AM,59.0,59.0,100,29.96,2.0,ENE,4.6,-,N/A,,Mostly Cloudy,70,2012-12-07 12:26:00
7:34 AM,60.8,60.8,100,29.97,0.8,ENE,5.8,-,N/A,,Overcast,60,2012-12-07 12:34:00
7:45 AM,60.8,60.8,100,29.97,0.2,ENE,3.5,-,N/A,Fog,Fog,60,2012-12-07 12:45:00
7:53 AM,61.0,61.0,100,29.97,0.2,NE,4.6,-,N/A,Fog,Fog,50,2012-12-07 12:53:00
8:20 AM,62.6,62.6,100,29.98,0.5,NNE,3.5,-,N/A,Fog,Fog,30,2012-12-07 13:20:00
8:27 AM,62.6,62.6,100,29.98,2.0,NE,3.5,-,N/A,,Mostly Cloudy,50,2012-12-07 13:27:00
8:34 AM,62.6,62.6,100,29.98,5.0,NE,3.5,-,N/A,,Scattered Clouds,50,2012-12-07 13:34:00
8:53 AM,64.0,63.0,96,29.98,9.0,ENE,4.6,-,N/A,,Clear,70,2012-12-07 13:53:00
9:53 AM,71.1,64.9,81,29.99,10.0,East,6.9,-,N/A,,Clear,90,2012-12-07 14:53:00
10:53 AM,75.0,64.0,69,29.99,10.0,ENE,8.1,-,N/A,,Clear,70,2012-12-07 15:53:00
11:26 AM,75.2,62.6,65,29.98,10.0,East,4.6,-,N/A,,Mostly Cloudy,100,2012-12-07 16:26:00
11:53 AM,77.0,63.0,62,29.97,10.0,South,8.1,-,N/A,,Scattered Clouds,170,2012-12-07 16:53:00
12:53 PM,79.0,64.0,60,29.94,10.0,South,6.9,-,N/A,,Mostly Cloudy,170,2012-12-07 17:53:00
1:53 PM,80.1,62.1,54,29.91,10.0,South,3.5,-,N/A,,Partly Cloudy,170,2012-12-07 18:53:00
2:53 PM,81.0,61.0,50,29.89,10.0,Calm,Calm,-,N/A,,Scattered Clouds,0,2012-12-07 19:53:00
3:53 PM,79.0,61.0,54,29.89,10.0,SSW,3.5,-,N/A,,Overcast,200,2012-12-07 20:53:00
4:53 PM,77.0,61.0,58,29.91,10.0,WSW,10.4,-,N/A,,Partly Cloudy,240,2012-12-07 21:53:00
5:53 PM,73.9,60.1,62,29.93,10.0,West,5.8,-,N/A,,Mostly Cloudy,260,2012-12-07 22:53:00
6:53 PM,71.1,62.1,73,29.94,10.0,NW,4.6,-,N/A,,Partly Cloudy,310,2012-12-07 23:53:00
7:53 PM,71.6,64.4,78,29.96,10.0,NNW,4.6,-,N/A,,Mostly Cloudy,340,2012-12-08 00:53:00
8:53 PM,68.0,66.0,93,29.97,10.0,ESE,5.8,-,0.01,Rain,Light Rain,120,2012-12-08 01:53:00
9:53 PM,68.0,66.0,93,29.98,3.0,North,3.5,-,0.03,Rain,Rain,360,2012-12-08 02:53:00
10:53 PM,66.9,64.9,93,29.97,10.0,Calm,Calm,-,0.01,,Overcast,0,2012-12-08 03:53:00
11:53 PM,66.9,64.9,93,29.98,10.0,East,3.5,-,N/A,,Overcast,80,2012-12-08 04:53:00